SCP
2 3 4 3 2 2 1 1 1 1 1 1 1 1 1 1 1 0 0 0 0 0 0 0 0 0 0 0 0 0 0 0 0 0 0 0 0 0 0 0 0 0 0
3 4 4 4 3 2 2 1 1 1 1 1 1 1 1 1 1 1 0 0 0 0 0 1 1 1 0 0 0 0 0 0 0 0 0 0 0 0 0 0 0 0 0
3 4 5 4 3 3 2 2 2 1 1 1 1 1 1 1 1 1 0 0 1 1 1 1 1 1 0 0 0 0 0 0 0 0 0 0 0 0 0 0 0 0 0
4 4 5 5 4 4 3 3 2 2 1 1 1 1 1 1 1 1 1 1 1 1 1 1 1 1 1 1 0 0 0 0 0 0 0 0 0 0 0 0 0 0 0
5 5 6 6 5 5 4 3 3 2 2 1 1 1 1 1 1 1 1 1 1 1 1 1 1 1 1 1 1 1 0 0 0 0 0 0 0 0 0 0 0 0 0
5 6 6 6 6 5 5 4 3 2 2 2 1 1 1 1 1 1 1 1 1 1 1 1 1 1 1 1 1 1 0 0 0 0 0 0 0 0 0 0 0 0 0
4 5 5 5 5 5 4 3 2 2 2 2 1 1 1 1 1 1 1 1 1 1 1 1 1 1 1 1 1 1 0 0 0 0 0 0 0 0 0 0 0 0 0
3 3 3 3 3 3 3 2 2 2 2 2 2 2 1 1 1 1 1 1 1 1 1 1 1 1 1 1 1 1 0 0 0 0 0 0 0 0 0 0 0 0 0
3 3 3 2 2 2 2 2 2 2 2 2 2 2 2 1 1 1 1 1 1 1 1 1 1 1 1 1 1 1 0 0 0 0 0 0 0 0 0 0 0 0 0
3 3 3 2 2 2 2 2 2 2 2 2 2 2 2 1 1 1 1 1 1 1 1 1 1 1 1 1 1 1 0 0 0 0 0 0 0 0 0 0 0 0 0
2 2 2 2 2 2 2 2 2 2 2 2 2 2 2 1 1 1 1 1 1 1 1 1 1 1 1 1 1 1 0 0 0 0 0 0 0 0 0 0 0 0 0
3 3 3 2 2 2 2 2 3 3 2 2 2 2 1 1 1 1 1 1 1 1 1 1 1 1 1 1 1 1 1 1 1 0 0 0 0 0 0 0 0 0 0
3 3 3 3 2 2 3 3 3 3 3 2 2 2 2 2 2 2 2 2 1 1 1 1 1 1 1 1 1 1 1 1 1 1 0 0 0 0 0 0 0 0 0
2 3 3 2 2 2 3 3 3 3 3 3 2 2 2 2 2 2 2 2 2 2 2 2 2 2 2 2 2 2 2 2 1 1 1 0 0 0 0 0 0 0 0
2 2 2 2 2 2 2 3 3 3 3 3 2 2 2 2 2 2 2 2 2 2 2 2 2 2 2 2 2 2 2 2 2 1 1 0 0 0 0 0 0 0 0
2 2 2 1 1 1 2 2 2 2 2 2 2 2 2 2 2 2 2 2 2 2 2 2 2 2 2 2 2 2 2 2 2 2 1 1 0 0 0 0 0 0 0
2 2 2 1 1 1 1 1 2 2 2 2 2 2 1 1 2 2 2 2 2 2 2 2 1 1 1 1 2 2 2 3 2 2 2 1 1 0 0 0 0 0 0
1 1 1 1 1 1 1 1 1 1 1 2 2 2 1 1 1 1 1 1 2 2 2 2 1 1 1 1 1 2 2 2 2 2 2 2 1 1 0 0 0 0 0
0 1 1 1 1 1 1 1 1 1 1 1 2 2 2 1 1 1 1 1 2 2 2 1 1 1 1 1 1 1 2 2 2 2 2 2 2 1 1 0 0 0 0
0 0 0 1 1 1 1 1 1 1 1 1 2 2 2 1 1 1 1 1 1 1 1 1 1 1 1 1 1 1 1 1 2 2 2 2 2 2 1 1 1 0 0
0 0 0 0 1 1 1 1 1 1 1 1 2 2 2 1 1 1 1 1 1 1 1 1 1 1 1 1 1 1 1 1 1 1 2 2 2 2 1 1 1 1 1
0 0 0 0 0 0 1 1 1 1 1 1 2 2 2 1 1 1 1 1 1 1 1 1 1 1 1 1 2 1 1 1 1 1 1 2 2 2 2 1 1 1 1
0 0 0 0 0 0 0 0 1 1 1 1 1 1 1 1 1 1 1 1 1 1 1 1 1 1 1 1 1 1 1 1 1 1 1 1 2 2 2 2 1 1 1
0 0 0 0 0 0 0 0 0 0 0 0 1 1 1 1 1 1 1 1 1 1 1 1 1 1 1 1 1 1 1 1 1 1 1 1 2 2 2 2 1 1 0
0 0 0 0 0 0 0 0 0 0 0 0 0 0 1 1 1 1 1 1 1 1 1 1 1 1 1 1 1 1 1 1 1 1 1 1 1 2 2 2 2 1 1
0 0 0 0 0 0 0 0 0 0 0 0 0 0 0 1 1 1 1 1 1 1 1 1 1 1 1 1 1 1 1 1 1 1 1 1 1 1 2 2 2 1 1
Wind_Speed
5 6 6 8 10 11 11 11 10 10 11 11 11 12 12 12 12 11 11 11 10 10 10 11 11 11 11 11 11 10 10 11 11 11 10 10 10 10 10 7 5 9 10
5 7 7 7 10 10 10 10 9 9 9 10 11 12 12 11 11 11 11 11 10 10 10 10 11 10 10 10 10 10 10 10 10 9 7 8 8 8 9 8 8 8 9
6 7 8 7 8 9 9 9 9 9 10 10 10 11 11 11 11 11 11 11 10 10 10 10 10 10 10 9 9 10 10 9 9 6 4 6 8 8 8 8 8 9 8
6 7 7 7 7 8 9 9 8 9 9 9 10 10 11 11 11 10 11 11 10 10 9 10 10 9 9 9 9 9 9 8 7 3 3 5 6 7 6 6 7 7 7
6 6 7 6 6 7 8 8 8 8 8 8 9 10 10 10 11 10 10 10 9 9 9 10 10 9 9 8 8 8 8 8 4 3 4 4 5 6 5 5 5 6 6
6 6 7 5 5 6 7 7 7 7 7 7 8 9 10 10 10 10 10 9 9 8 9 10 10 9 9 8 8 8 8 6 5 4 4 3 4 6 5 5 5 4 4
5 5 7 5 5 6 6 6 6 6 6 6 7 8 9 9 9 9 9 9 9 9 9 10 10 9 9 8 8 8 7 4 3 3 3 3 4 5 4 4 3 3 3
5 4 5 6 5 5 5 5 5 5 5 5 6 7 7 8 8 9 9 9 10 10 10 10 10 9 9 8 8 8 7 5 4 3 3 3 4 3 3 3 3 3 3
4 4 4 4 5 5 4 4 4 4 4 4 4 4 5 6 6 8 8 9 9 9 9 9 9 9 9 8 8 8 7 5 4 3 3 2 3 3 3 3 2 2 2
4 3 3 3 3 3 4 4 3 3 3 4 4 4 4 5 6 6 7 8 8 9 9 9 9 9 8 8 7 8 7 7 5 4 3 3 3 4 3 3 2 2 1
3 2 2 2 2 1 2 3 3 4 4 4 5 5 5 6 7 6 6 6 7 7 8 8 8 8 8 8 7 8 8 5 5 4 3 3 4 4 4 3 3 2 2
2 2 2 1 1 1 1 2 2 3 4 4 4 5 5 5 4 4 5 5 6 7 7 8 7 8 8 7 8 8 6 6 5 4 3 4 5 5 5 4 4 3 3
1 1 1 1 1 0 1 1 1 1 2 3 4 5 4 4 4 4 4 5 7 7 7 7 8 7 7 5 5 7 6 5 4 3 4 5 6 6 5 5 5 4 4
1 0 0 0 0 0 1 1 1 1 2 2 3 4 4 3 4 4 4 4 5 5 5 5 5 7 7 8 8 7 7 5 4 3 3 6 6 7 7 6 5 5 6
1 0 1 0 0 1 1 1 1 2 2 2 2 3 4 3 4 4 4 4 5 4 5 5 6 6 7 7 7 7 7 7 6 5 4 6 6 6 7 6 6 6 6
1 1 1 1 1 1 1 1 2 2 2 2 2 3 4 3 4 4 4 4 5 5 5 5 6 6 5 5 6 7 7 7 7 6 5 6 7 6 7 7 7 6 6
1 1 1 1 1 1 2 2 2 2 2 2 3 4 4 4 4 4 4 4 4 4 5 5 5 5 4 5 6 6 6 6 6 7 6 4 5 6 6 7 7 6 6
2 1 1 1 2 2 2 2 2 2 2 2 3 3 4 5 5 5 4 4 4 4 4 4 4 5 5 5 5 5 5 5 7 7 6 5 4 4 6 6 6 6 5
2 2 2 2 2 2 2 2 2 2 2 2 2 3 3 5 5 5 4 4 4 4 4 4 4 4 4 4 4 4 4 5 6 6 6 6 5 4 4 4 5 4 4
2 2 2 2 2 2 2 2 1 2 2 2 2 3 4 4 5 5 4 5 5 4 4 5 4 4 3 3 4 4 4 5 5 5 6 5 5 5 5 4 4 3 4
3 3 2 2 2 2 1 2 2 2 2 2 2 3 4 4 4 4 4 4 5 5 5 6 4 4 3 3 3 3 4 5 6 5 5 5 5 4 4 4 3 3 3
4 3 3 3 3 2 2 2 2 3 3 3 2 3 3 4 4 4 5 4 5 5 6 6 5 4 3 3 3 3 3 4 5 5 4 4 5 4 4 4 4 4 3
4 4 3 3 3 3 2 2 2 2 2 2 2 2 3 3 3 4 4 4 4 5 5 6 6 6 5 4 4 3 3 4 1 3 4 4 4 3 3 3 4 4 4
4 3 4 4 4 3 3 3 4 4 4 4 3 3 3 3 3 3 3 4 4 4 4 5 5 5 6 5 4 3 3 2 2 2 3 4 4 4 4 3 4 4 4
4 4 4 4 4 4 3 3 4 5 4 4 4 4 4 3 3 3 3 3 4 4 4 5 5 5 5 5 4 3 4 3 4 4 4 4 4 4 4 4 4 3 4
4 4 4 5 4 4 4 4 5 5 5 5 5 4 3 3 3 3 3 4 4 4 4 5 5 6 5 6 5 4 4 4 4 4 4 4 4 3 3 3 4 3 3
Wind_Direction
147 147 139 152 155 156 156 155 152 151 152 151 151 151 151 150 149 146 143 139 137 134 130 126 123 120 116 112 108 103 101 100 96 93 88 88 90 90 87 82 84 86 77
145 147 137 144 152 154 158 155 152 152 154 156 156 156 155 155 154 151 150 146 144 141 136 131 128 124 120 117 113 109 106 102 99 94 98 104 93 90 89 76 57 77 80
144 146 145 140 146 150 151 153 153 155 158 160 160 160 159 160 159 158 157 152 149 147 142 137 132 128 124 120 117 114 110 106 103 108 161 119 106 96 93 89 84 84 82
142 148 145 134 144 148 147 148 149 156 162 166 165 163 162 162 161 161 159 157 153 149 145 141 136 133 130 126 124 121 117 113 112 172 144 102 107 101 99 97 93 89 83
139 146 130 131 142 144 146 147 150 155 162 167 169 168 166 166 167 166 163 158 153 149 147 146 141 139 137 134 131 128 125 122 139 195 106 105 104 106 105 102 96 91 87
135 139 128 131 138 143 146 147 150 156 164 167 168 171 173 172 172 171 167 161 157 155 154 153 150 148 146 144 141 138 135 140 190 135 122 119 111 111 111 107 98 93 91
126 130 134 130 134 138 146 151 151 155 159 166 172 175 176 177 175 175 171 168 166 166 165 163 161 158 156 155 153 149 146 169 194 140 139 130 107 120 125 120 108 98 95
112 121 129 127 132 134 140 150 155 159 162 169 175 177 176 177 177 177 175 174 176 176 174 173 171 168 166 167 163 158 156 193 190 164 159 139 105 144 140 131 123 113 98
103 107 115 136 145 139 138 141 149 156 164 167 168 169 168 170 174 181 181 180 183 183 181 180 179 176 175 176 170 163 162 202 219 174 174 146 126 172 161 151 139 134 117
98 95 104 114 139 160 162 141 143 151 159 165 165 159 166 168 175 178 187 183 185 187 185 185 185 183 181 177 172 168 170 202 214 191 190 140 154 188 181 173 168 168 160
92 84 86 97 112 153 169 148 164 161 164 177 175 167 186 192 189 183 185 174 184 189 189 189 189 185 182 179 175 173 187 213 204 205 194 132 184 199 200 195 195 204 209
93 71 81 88 92 126 160 173 185 191 187 200 197 188 198 199 195 193 164 173 185 187 190 193 191 188 201 194 179 186 207 215 211 203 174 159 203 214 215 208 207 220 234
111 60 54 75 95 151 198 199 195 206 204 210 207 201 205 202 196 198 191 185 195 196 199 191 198 207 210 206 201 202 211 211 212 206 177 174 213 223 226 221 217 227 238
145 89 14 226 172 257 254 222 210 213 217 220 216 211 208 207 210 206 206 205 205 205 206 206 213 212 214 212 214 212 207 211 214 212 176 174 213 227 234 235 228 233 241
194 198 345 327 256 242 238 236 218 223 227 224 228 225 221 217 217 217 219 216 216 214 211 212 215 216 219 219 221 222 218 216 216 214 187 174 207 228 238 243 242 241 244
255 285 318 312 289 258 248 246 240 230 233 236 229 230 228 229 227 223 225 224 223 221 221 221 220 217 216 219 224 226 226 223 224 221 220 186 195 221 235 243 249 249 249
276 291 299 301 295 275 264 259 256 247 239 238 238 234 230 231 235 230 230 225 223 221 220 223 221 221 220 219 224 228 229 227 226 225 222 224 203 203 224 237 245 254 256
266 274 292 304 298 286 276 259 249 252 246 241 248 242 236 236 237 236 233 230 224 217 216 216 215 217 218 223 224 223 227 229 230 228 224 221 222 214 205 219 241 250 255
264 262 265 276 284 294 288 267 254 245 250 249 249 253 246 241 237 236 237 234 223 217 217 217 212 219 219 223 226 227 228 228 225 224 224 222 223 228 227 191 211 236 250
257 257 257 266 277 280 275 266 249 239 242 253 254 258 259 248 240 237 235 234 226 218 212 212 207 210 221 220 224 229 232 231 230 229 227 222 223 228 233 229 215 210 227
248 255 263 273 274 271 263 260 253 253 256 251 260 268 262 255 245 237 240 239 228 221 219 213 207 205 211 216 223 229 229 231 233 231 228 226 224 224 224 231 236 236 220
243 250 265 269 270 265 260 268 267 272 264 263 270 270 265 256 248 240 235 237 231 224 221 215 210 206 206 207 222 227 233 220 218 228 229 228 226 217 221 230 240 241 248
240 245 253 265 269 266 259 254 258 255 258 250 254 259 268 261 247 243 242 240 233 228 224 217 212 210 207 208 220 226 229 236 222 212 225 226 226 226 227 234 239 242 246
240 247 252 255 258 259 254 243 246 248 251 260 266 262 262 262 254 242 243 241 238 230 225 222 218 220 214 209 213 232 249 267 236 236 213 217 231 239 240 242 242 241 245
238 242 248 248 249 250 250 249 251 254 259 265 266 263 262 259 259 253 241 238 238 233 225 219 213 216 219 217 211 210 221 233 241 244 249 235 236 236 249 255 250 247 249
232 235 242 239 241 243 244 244 251 258 258 256 258 259 260 257 255 253 244 233 232 229 226 220 214 212 213 216 215 215 216 216 220 232 249 254 255 253 261 256 254 255 261